Theta_e
356 354 351 350 353 347 337 336 337 339 346 350 348 347 348 348 348 349 349 350 351 350 353 355 351 345 341 341 345 348 344 341 343 342 342 342 346 351 352 350 348 346 345 346 346 349 349 347 349 349 349 350 353 355 356 356 356 355 353 353 351 349 349 351 349 344 343 344 345 346 347 348 351 351 350 351 350 351 353 348 338 336 345 353 352
357 357 356 354 355 353 347 341 337 342 348 350 350 349 348 347 348 349 349 348 349 349 350 353 354 351 349 345 346 349 347 342 341 344 343 340 342 348 349 348 349 347 345 345 345 348 349 346 347 348 347 346 348 353 355 355 354 354 354 353 353 352 351 352 353 351 346 343 347 350 349 348 350 350 349 353 353 348 344 340 335 338 347 354 353
356 355 354 354 355 355 355 351 342 343 349 351 349 349 349 347 347 348 348 347 348 349 349 351 353 353 354 352 348 349 349 345 341 344 346 342 338 343 349 349 347 345 345 344 344 345 346 346 347 348 348 348 348 350 353 353 352 352 353 353 354 355 355 353 354 354 350 345 345 351 353 352 352 352 354 355 354 348 344 341 339 340 344 348 350
356 354 353 354 353 352 355 356 351 349 350 350 349 349 349 348 348 347 347 347 347 347 347 349 351 349 350 354 351 348 350 348 342 341 344 345 341 342 350 353 351 348 345 344 345 346 346 346 347 350 352 352 352 351 352 352 351 351 351 352 352 353 354 354 354 354 352 348 344 345 349 350 349 350 352 350 348 349 352 351 349 346 343 343 349
356 356 356 355 352 349 351 353 354 353 352 350 349 349 349 349 349 348 346 346 346 346 346 347 350 346 344 349 351 347 347 347 344 339 341 344 343 340 345 349 352 353 352 350 350 350 351 350 348 350 351 351 351 351 350 350 351 350 350 350 350 350 350 351 352 352 351 349 345 342 342 343 342 342 343 344 344 348 352 355 355 354 350 347 350
356 356 356 355 352 348 347 349 352 354 353 351 348 348 348 347 349 348 347 346 345 345 345 345 348 347 343 343 345 342 341 342 342 340 341 344 344 341 342 344 345 347 349 350 348 347 348 348 347 349 350 349 349 348 349 350 350 349 350 349 349 349 350 351 352 352 351 349 346 343 340 339 341 342 343 347 351 353 355 353 351 350 348 347 352
354 354 353 353 351 349 347 348 351 351 351 351 349 347 346 345 346 347 347 346 345 344 346 345 345 346 344 343 343 341 337 336 337 336 339 346 350 348 346 346 345 342 341 342 341 342 344 343 342 345 345 344 344 346 348 350 348 348 349 349 348 348 348 349 351 352 352 351 350 349 347 345 348 351 352 354 355 356 356 351 346 344 347 349 353
353 352 352 350 349 350 350 349 351 351 350 350 349 347 347 345 344 345 346 346 345 343 344 345 345 345 345 344 344 343 340 336 335 334 333 338 347 351 350 350 349 346 343 341 341 344 347 347 345 344 342 339 338 339 344 347 349 349 349 349 349 348 348 348 349 351 351 351 352 353 353 352 352 352 350 349 351 351 351 349 347 347 350 352 351
352 352 351 350 349 350 352 352 352 352 351 351 350 348 347 346 344 343 343 345 345 344 342 343 345 346 346 345 345 346 345 341 336 332 331 330 334 342 348 349 350 350 347 346 344 345 348 348 348 348 346 343 339 339 341 343 345 347 349 350 350 350 350 349 348 347 346 346 347 347 348 349 348 348 346 346 347 348 348 350 350 349 351 352 350
352 352 352 352 351 351 352 352 352 353 352 352 352 350 347 345 345 344 343 343 344 344 343 341 343 345 346 346 345 345 346 344 338 331 329 329 327 331 337 342 346 347 347 348 347 346 346 346 345 345 345 344 343 343 343 342 341 340 341 344 345 344 344 343 342 341 340 340 340 341 345 345 345 348 348 347 347 347 346 348 349 349 351 353 351
353 352 352 352 351 352 353 352 353 352 352 351 352 352 351 349 346 344 344 344 344 345 344 342 342 342 345 347 347 347 346 345 342 336 330 329 328 328 329 333 340 343 344 346 347 346 346 346 345 344 342 343 342 342 342 343 341 337 333 332 332 331 331 330 330 330 330 331 333 337 344 348 348 349 349 347 345 343 343 344 344 344 346 347 345
353 352 353 353 352 353 352 352 352 352 353 351 349 351 353 352 349 347 346 345 345 345 345 344 342 341 342 344 347 348 348 346 345 342 337 333 331 330 329 330 336 340 341 343 345 345 343 342 344 344 343 342 342 341 341 341 339 336 332 329 327 326 326 325 325 325 325 325 326 329 335 340 343 345 345 346 346 345 344 344 343 341 341 340 338
352 352 352 353 353 352 352 352 352 352 354 353 350 349 350 349 349 349 349 348 347 346 346 346 345 343 341 342 343 345 347 348 346 344 341 339 336 334 332 331 333 337 339 340 342 343 342 340 339 340 340 341 341 341 341 340 340 338 337 334 331 328 327 326 325 325 325 325 324 325 326 328 330 331 332 335 339 342 342 341 341 340 339 338 336
351 352 352 352 352 352 351 351 352 352 353 353 351 350 348 347 347 348 348 349 349 349 349 348 348 346 343 343 343 343 345 347 347 345 343 341 340 338 336 334 333 335 339 341 342 342 342 341 338 336 334 335 337 340 342 343 343 342 341 338 334 330 328 327 326 325 325 325 325 325 324 325 325 325 325 327 330 333 334 334 336 338 339 339 337
348 349 351 351 351 351 350 351 351 351 352 351 351 351 350 349 350 350 348 348 349 350 351 351 351 351 349 347 345 344 345 346 346 345 344 343 342 340 339 338 336 334 335 339 342 342 343 343 342 338 335 332 330 332 335 339 342 343 342 338 333 328 327 325 325 325 325 325 325 325 325 324 324 324 324 324 324 325 327 329 333 338 342 343 340
344 346 348 350 350 350 351 350 351 351 351 351 351 352 352 351 352 353 352 352 351 351 351 351 353 354 354 353 351 349 348 348 347 346 346 345 344 343 342 341 341 339 337 335 336 338 340 342 342 341 340 336 332 329 329 331 334 337 339 337 334 331 328 326 325 324 324 324 324 324 325 325 326 326 325 325 327 327 328 329 334 341 346 348 344
334 338 342 346 348 349 351 351 352 352 352 352 352 352 353 353 353 354 353 353 353 352 350 350 352 353 353 354 355 355 354 352 351 349 348 347 346 345 345 344 344 344 343 340 337 335 335 336 336 336 337 336 334 333 332 332 333 334 334 335 335 334 333 334 336 334 329 328 328 328 330 333 333 334 334 334 335 335 335 334 335 339 345 350 349
325 326 330 338 342 345 348 349 351 352 352 352 352 353 353 354 354 354 352 352 352 351 350 350 351 352 351 351 353 355 356 356 355 354 352 351 349 348 347 347 347 347 348 347 345 343 340 337 335 332 331 331 330 331 332 334 334 333 332 332 333 333 333 336 341 342 339 338 338 337 338 339 340 341 341 341 342 343 342 342 340 340 342 346 348
322 322 323 328 334 340 345 347 348 351 352 352 353 354 354 354 354 353 352 352 352 352 351 350 350 351 350 349 349 350 353 357 358 356 355 353 352 351 350 349 349 349 349 350 349 350 349 347 344 340 336 332 330 330 331 332 332 332 332 334 335 334 332 334 338 341 342 342 343 342 341 342 341 341 342 343 344 345 346 347 347 346 345 345 345
319 322 322 323 325 330 338 343 345 347 348 350 352 353 354 354 354 354 353 353 354 354 354 352 351 350 350 349 349 349 350 355 357 358 357 356 354 353 352 352 351 351 351 351 350 351 351 351 350 348 345 342 340 338 337 336 335 334 335 338 338 336 336 339 341 343 344 345 344 343 343 343 343 343 343 344 346 347 348 349 350 350 349 348 346
316 319 321 323 323 323 328 334 340 344 344 346 349 350 351 352 352 353 354 354 354 356 355 354 353 352 351 352 352 353 352 354 356 357 358 357 356 355 354 353 352 352 352 351 351 351 352 352 352 351 349 349 348 348 348 347 345 344 342 343 342 341 342 344 346 348 349 349 349 348 347 346 345 344 343 344 345 346 346 347 348 348 348 348 346
314 315 317 321 322 322 323 326 331 337 340 343 346 347 348 349 350 350 351 352 353 355 355 355 354 354 353 353 354 355 355 355 357 357 357 357 357 357 356 355 354 354 353 353 352 352 352 353 353 353 353 353 352 353 353 353 353 352 351 350 350 350 350 349 349 350 350 351 351 350 350 349 350 349 348 347 347 347 346 346 345 345 345 345 345
316 316 316 316 316 318 322 323 324 328 331 336 342 342 341 344 347 349 350 350 352 354 354 355 355 355 354 353 353 354 355 357 358 357 356 357 357 357 357 357 356 356 355 355 354 354 354 355 354 355 355 355 355 355 355 355 356 356 356 356 355 355 355 354 353 353 352 351 351 350 349 348 349 349 350 350 351 351 350 349 348 347 347 347 347
322 323 321 317 314 315 319 323 326 328 329 331 334 335 335 338 341 345 348 350 350 352 354 354 354 355 355 355 354 354 355 357 357 356 355 355 356 357 357 356 356 356 356 355 355 355 355 356 356 357 357 357 357 357 357 357 357 357 357 357 357 357 357 356 356 355 354 353 352 349 347 345 344 343 343 345 347 349 350 351 352 352 351 351 350
327 327 322 316 314 315 315 318 328 335 335 332 331 330 332 336 338 339 343 347 348 349 351 352 353 354 355 355 355 355 356 356 356 355 353 353 354 355 355 355 356 356 356 356 356 356 356 356 356 356 357 358 358 358 359 358 358 357 357 357 357 357 357 357 356 356 356 355 352 349 345 342 340 338 338 338 340 342 345 347 349 351 352 353 353
322 321 317 314 315 316 314 313 322 331 332 328 325 325 328 334 338 337 337 339 341 342 343 345 348 350 352 354 355 355 355 355 354 353 352 352 353 354 354 355 356 355 355 355 355 355 354 355 356 357 357 357 357 357 358 358 357 358 357 357 357 357 357 357 357 357 357 356 355 353 349 345 342 340 339 339 338 337 338 340 342 345 348 352 354
313 314 316 317 315 314 313 313 314 319 325 329 332 332 331 332 333 333 331 333 340 345 346 346 346 347 349 351 352 352 353 354 353 352 352 353 354 355 355 356 357 356 356 355 354 353 353 355 356 358 358 358 358 358 358 357 357 357 357 357 357 357 356 357 357 357 357 357 357 356 354 351 348 345 342 340 339 337 337 338 339 340 343 347 352
312 311 313 316 316 314 316 317 317 321 331 337 337 335 335 334 334 333 331 331 336 340 343 344 345 347 348 349 349 351 351 352 352 352 353 353 353 354 355 357 357 357 356 356 355 354 355 356 356 357 359 360 360 359 359 358 358 358 358 357 357 357 357 357 357 357 357 357 357 358 357 356 353 350 347 345 343 342 342 343 343 342 342 344 349
315 314 314 318 322 323 323 324 326 330 334 334 332 332 335 337 337 335 333 331 331 331 332 331 332 334 337 339 342 345 346 347 349 351 353 354 353 354 356 356 357 357 356 355 355 355 355 355 355 356 357 358 357 358 358 357 357 357 357 357 357 357 357 357 357 357 357 357 357 357 357 357 356 355 353 351 348 346 345 346 346 346 347 348 349
318 321 323 325 327 327 327 327 329 330 330 330 330 329 328 327 326 324 322 324 325 326 327 325 324 323 324 325 329 333 334 336 339 343 349 352 353 354 355 356 356 356 355 355 355 355 356 356 356 356 357 357 356 356 355 354 355 355 355 356 356 356 356 356 356 356 357 357 357 357 357 357 357 357 356 355 354 351 349 347 347 348 350 352 352
316 319 323 326 328 328 328 327 327 326 327 328 328 326 323 321 320 319 320 322 323 324 324 324 324 324 323 323 325 325 326 327 330 332 337 342 345 347 350 352 354 355 356 356 356 356 356 356 356 356 356 356 355 355 355 356 356 357 357 357 357 357 357 357 358 358 358 358 358 357 357 357 356 356 356 355 355 354 352 351 349 349 350 351 352
314 314 317 321 324 326 327 328 328 327 327 328 329 328 327 326 324 324 325 327 327 325 324 323 323 324 324 325 325 325 325 326 326 326 328 332 335 337 338 340 342 342 344 345 346 348 351 353 354 354 353 353 353 353 353 355 357 358 358 358 358 359 359 359 359 359 359 359 358 358 358 357 356 355 354 353 352 353 353 353 352 351 351 352 352
318 316 316 318 320 322 324 325 327 328 328 329 329 329 329 330 330 328 325 324 323 324 325 325 325 324 324 324 324 324 325 326 326 325 326 328 331 333 333 333 332 332 332 331 331 333 336 340 342 343 345 348 349 350 350 352 354 356 357 357 359 359 359 359 360 359 359 358 357 356 356 356 353 352 353 354 353 353 353 353 353 353 353 354 354
318 318 318 318 319 321 323 323 323 325 326 326 326 327 328 329 331 330 326 324 324 325 325 324 323 323 324 325 325 325 325 325 325 325 326 326 328 330 331 332 333 333 332 332 330 330 330 333 335 337 340 345 348 350 351 353 355 356 357 357 358 359 359 359 359 358 358 357 357 356 354 351 349 350 353 355 354 354 354 353 353 353 353 353 353
317 317 318 318 319 320 323 324 324 324 324 324 325 326 327 328 329 330 330 329 328 325 321 320 324 327 328 327 325 324 324 324 325 325 326 327 329 330 330 331 333 334 335 335 334 335 335 335 336 336 339 344 348 350 353 354 355 357 358 358 358 358 358 358 358 356 355 355 356 356 355 354 353 353 354 354 353 353 354 354 353 353 353 353 353
316 316 317 318 318 320 322 324 324 324 324 325 325 326 327 328 329 329 329 327 325 324 322 323 326 327 327 326 325 326 326 326 326 325 326 327 330 333 334 334 336 337 338 337 336 336 337 337 336 336 338 343 348 352 355 356 357 358 359 359 358 357 356 356 355 354 353 354 356 356 355 355 354 354 355 355 354 354 354 354 354 354 353 353 353
316 316 316 316 317 318 320 322 324 324 324 324 325 325 326 326 326 326 326 325 324 326 328 329 328 326 326 329 331 332 332 330 326 325 326 327 331 336 340 342 342 343 343 342 341 339 338 336 335 337 339 342 347 352 356 358 358 358 359 358 358 357 356 355 354 352 351 353 355 354 353 353 353 354 354 355 354 354 355 355 355 354 354 354 354
315 315 315 316 316 316 317 319 322 324 325 325 325 325 325 325 325 326 326 327 327 329 330 330 330 330 331 332 333 332 331 329 327 326 326 327 329 333 337 340 343 345 345 345 345 345 344 342 341 343 345 346 350 354 357 358 358 358 359 358 358 358 357 357 356 355 354 354 354 355 355 356 356 356 356 356 355 355 355 355 355 355 355 355 355
315 315 315 315 315 315 316 317 319 321 323 325 325 325 325 325 325 326 326 327 328 329 329 330 331 332 332 332 330 329 328 328 328 327 326 326 328 330 332 336 340 343 344 344 345 346 347 347 348 349 350 352 353 355 356 358 358 358 358 358 358 358 357 357 357 356 355 354 355 356 357 358 358 358 357 357 357 356 356 356 356 356 356 355 355
316 316 316 316 316 316 317 318 319 320 322 323 324 324 323 323 323 324 324 324 325 327 328 329 329 330 330 330 329 328 327 327 327 326 325 326 327 328 329 332 336 339 341 344 345 347 348 349 350 350 350 351 352 353 355 356 357 358 357 357 357 357 358 357 356 356 356 356 356 356 357 355 354 355 357 358 358 358 357 357 356 356 357 357 357
316 316 317 317 317 317 318 319 320 321 321 322 323 323 323 323 323 323 324 325 325 326 327 327 327 328 328 328 328 327 327 327 326 325 326 326 327 327 328 329 331 333 336 339 342 345 347 349 350 350 351 351 350 351 353 355 356 356 357 357 357 358 358 357 357 356 357 357 357 357 356 355 355 356 358 359 360 359 358 358 358 358 357 357 358
316 317 317 317 317 318 318 319 319 320 320 321 322 323 323 323 323 324 324 325 325 325 326 326 326 326 327 327 327 327 326 326 325 324 325 325 326 326 327 328 330 331 333 334 337 340 343 346 347 348 349 349 349 350 351 353 353 354 355 355 356 357 357 357 357 357 357 358 358 358 357 356 357 358 358 358 359 359 360 360 360 359 358 357 357
314 315 316 316 317 317 318 318 319 320 321 322 323 323 323 323 323 323 323 324 324 325 325 325 325 325 325 326 325 325 325 324 323 323 323 324 325 326 327 327 328 330 331 333 334 336 338 341 342 343 343 344 345 347 348 350 350 350 350 351 353 355 356 356 357 356 356 357 357 357 357 356 356 357 356 357 357 359 359 360 359 358 358 358 357
312 313 314 315 315 316 317 317 319 320 321 322 322 322 321 321 322 322 322 323 323 324 323 323 324 324 324 324 324 323 322 322 322 322 322 323 324 325 326 327 328 329 330 332 333 334 335 336 337 338 339 340 340 342 344 345 345 345 346 347 348 350 351 353 354 355 355 355 355 356 356 356 356 357 357 357 357 357 357 358 358 357 357 357 356
312 312 313 314 314 315 315 316 318 319 321 321 322 321 321 321 321 322 322 322 322 321 321 322 323 323 323 322 322 320 319 320 321 321 322 323 324 325 326 327 328 329 330 331 332 333 333 334 334 335 337 337 338 339 340 341 342 343 343 344 345 346 347 348 350 351 352 353 353 353 354 354 356 357 358 358 357 356 356 356 356 356 356 355 355
310 311 312 313 314 314 315 316 316 318 318 319 320 321 321 320 320 321 321 322 322 321 322 322 322 322 322 321 319 318 317 318 319 321 323 323 324 325 326 327 328 329 329 331 332 333 333 334 334 335 336 336 337 338 339 340 341 342 343 343 343 344 344 345 346 347 348 349 349 349 349 351 352 354 355 355 355 355 355 355 355 355 354 354 354
308 309 310 311 312 313 315 315 316 316 317 317 318 319 320 320 319 319 320 321 321 321 321 321 321 321 320 319 317 315 315 316 318 321 322 323 324 324 325 326 327 328 328 330 331 332 333 333 334 335 336 337 337 337 338 339 340 340 341 341 342 342 343 344 345 345 346 346 347 347 348 349 349 350 351 351 352 352 353 353 354 353 352 352 351
306 307 308 309 310 312 313 314 314 315 316 316 317 318 319 319 319 319 320 320 321 320 320 320 320 319 318 316 314 313 314 315 318 320 320 321 322 323 324 324 325 326 327 328 329 330 331 332 333 335 336 337 337 337 336 337 337 338 339 340 341 342 342 343 343 344 345 345 346 346 347 347 348 348 348 349 349 350 350 351 351 351 351 350 349
306 307 308 309 310 310 311 312 313 314 315 316 317 317 318 318 318 319 319 319 319 319 318 318 317 316 315 313 313 313 313 315 316 317 318 318 319 320 321 322 322 323 324 325 326 327 329 330 331 333 334 336 336 336 335 335 335 336 336 337 338 338 338 339 339 340 341 341 342 343 343 343 344 344 344 345 345 345 345 346 346 347 347 347 347
305 306 307 308 309 310 311 311 312 312 313 314 315 316 316 316 317 317 318 317 317 317 316 316 315 314 313 313 312 312 313 314 315 316 316 316 317 318 318 319 319 320 321 322 323 325 326 328 330 330 331 332 333 333 333 333 332 332 333 333 333 333 334 334 335 336 337 337 338 338 338 338 338 338 339 339 339 339 339 339 340 340 341 342 342
304 305 306 307 308 308 309 310 311 311 312 313 313 314 314 315 315 316 316 316 315 315 315 315 315 314 313 312 312 311 311 312 313 314 314 315 316 316 316 316 317 318 319 321 322 323 324 326 327 327 327 327 328 328 328 328 328 328 329 329 329 329 330 331 331 332 333 333 334 333 333 333 333 333 333 333 332 332 333 333 334 335 335 336 336
Wind_Speed
27 26 26 25 24 24 25 25 25 25 25 25 24 24 24 23 21 20 20 19 18 19 19 17 16 16 17 16 16 15 14 14 14 13 12 12 11 10 10 10 8 8 9 9 8 9 8 7 7 7 7 7 7 7 5 5 6 6 6 7 8 9 10 9 11 12 12 12 12 13 12 9 10 12 12 13 13 11 12 15 16 15 13 14 16
27 26 26 25 23 23 24 24 25 26 26 26 26 25 25 25 23 22 22 21 20 19 20 19 17 17 17 17 17 17 16 15 15 14 14 13 13 13 12 10 10 10 10 10 10 10 9 9 8 8 8 7 7 7 6 5 6 6 7 7 7 7 8 9 11 13 14 13 11 11 12 10 11 13 13 12 13 14 15 15 15 13 10 12 17
28 28 27 26 24 23 24 25 26 26 26 26 27 26 26 26 26 24 23 22 22 21 20 20 20 20 18 18 18 19 18 17 16 16 15 14 14 14 13 11 10 11 11 11 11 11 11 11 9 9 8 7 7 6 7 7 7 8 8 8 8 8 8 9 11 13 15 15 12 10 10 10 10 11 11 13 16 17 16 15 15 14 12 12 15
26 28 27 27 27 24 23 25 27 27 27 27 27 27 26 26 27 27 25 23 23 24 22 20 21 22 21 20 20 20 20 19 18 17 17 16 15 15 15 14 13 12 12 11 11 11 11 12 11 11 10 9 9 9 9 9 9 9 9 9 10 11 10 11 12 14 15 15 14 12 12 13 13 13 14 16 17 16 16 16 16 17 16 14 13
25 26 27 28 29 28 26 26 27 29 29 28 28 28 27 26 26 27 26 25 23 24 24 23 22 23 23 23 23 23 22 22 20 18 18 18 17 16 17 18 17 15 13 13 13 12 12 13 12 12 12 12 13 12 11 10 10 11 10 10 11 11 11 11 12 13 15 15 15 14 13 15 16 16 16 17 17 16 15 15 15 16 18 17 15
26 26 28 29 30 31 31 29 28 30 30 29 28 29 28 27 27 27 26 25 24 24 25 26 25 24 23 23 24 24 23 23 21 19 18 18 18 17 16 18 18 18 17 16 15 15 15 15 14 13 14 14 14 13 11 11 11 11 11 11 11 11 11 11 12 13 15 15 16 15 14 14 15 16 15 15 15 16 16 17 17 16 16 15 14
25 25 27 30 32 33 33 32 30 30 31 30 29 28 29 27 26 27 27 26 25 24 24 26 26 26 25 24 24 24 23 23 22 21 20 18 17 17 17 17 17 18 18 17 17 16 15 16 15 15 15 15 14 13 12 12 12 12 12 12 13 13 13 13 13 14 15 16 16 16 16 15 15 14 14 13 14 16 18 20 20 17 14 12 12
22 22 23 26 29 31 32 33 32 31 30 31 31 28 28 28 28 27 26 26 26 25 24 24 25 26 26 26 25 24 23 24 23 23 22 21 20 19 18 18 18 18 18 17 17 16 16 16 16 16 16 15 13 12 12 13 13 13 13 13 13 13 14 14 14 14 15 16 16 17 17 16 16 16 16 15 15 16 17 19 19 16 13 13 15
18 18 19 21 24 27 30 32 32 32 29 28 31 31 29 27 27 27 27 26 25 25 25 24 24 25 26 26 26 26 25 25 25 25 24 23 23 23 22 21 20 20 19 18 17 17 17 18 17 16 16 16 14 13 13 13 15 15 15 14 14 14 15 16 16 16 16 17 17 18 19 18 18 17 17 16 15 16 16 16 16 15 14 15 16
12 15 17 18 19 23 28 32 32 32 30 25 24 28 30 28 25 26 26 25 24 25 25 24 24 24 25 26 26 26 26 26 27 27 26 25 25 24 25 24 24 23 22 21 20 19 19 19 18 18 18 18 18 17 17 17 17 17 17 16 17 17 18 18 19 18 18 18 19 19 20 20 19 17 16 17 16 17 17 17 17 15 13 14 16
8 12 14 16 17 19 23 28 29 29 29 28 21 17 21 25 24 24 25 24 23 24 25 25 25 24 24 25 26 26 27 27 27 28 27 26 26 25 26 26 25 25 25 24 23 23 22 20 20 20 20 20 21 20 20 21 22 22 20 19 19 19 20 21 22 22 22 22 22 21 20 20 19 17 16 16 16 16 16 16 17 16 15 17 21
7 9 10 12 14 16 19 22 24 22 22 24 21 17 18 19 20 19 21 23 23 23 23 25 26 26 24 24 26 26 26 26 27 28 28 27 26 25 26 26 27 27 27 26 26 26 26 24 23 22 21 21 23 24 24 25 26 25 23 21 21 22 23 24 24 24 25 25 25 25 24 23 22 21 20 18 17 17 17 18 19 20 21 24 26
6 8 9 10 11 14 16 18 21 20 17 18 21 21 20 21 21 19 19 21 23 25 25 24 26 28 27 26 25 26 27 26 26 28 29 29 27 26 26 26 27 28 28 28 28 28 28 27 26 25 23 22 22 23 24 25 24 24 23 23 24 24 24 25 26 26 26 27 28 28 28 27 27 27 25 24 23 22 23 24 24 25 26 27 29
6 7 10 12 13 13 14 16 19 22 20 19 19 19 20 23 26 26 25 26 26 27 28 27 27 29 30 29 27 27 27 27 27 29 30 31 30 29 28 28 28 28 28 28 28 28 28 28 28 28 27 27 25 24 23 23 23 23 24 26 27 27 27 27 27 27 28 29 30 31 30 29 30 30 29 27 27 27 28 29 29 29 29 29 29
6 6 8 11 13 15 16 16 18 20 21 21 20 19 19 21 24 27 29 29 29 30 30 28 27 29 31 32 32 30 28 27 28 29 30 31 32 31 31 30 30 30 30 29 29 29 28 28 29 29 29 29 29 29 27 26 25 25 26 30 32 32 31 31 30 30 30 31 32 32 32 31 31 31 30 29 29 29 29 30 30 29 29 29 29
6 6 7 9 12 15 17 18 16 16 17 18 18 18 18 20 23 24 26 27 27 29 30 29 28 28 29 30 32 34 32 30 29 29 29 30 31 32 33 33 32 32 32 32 32 32 32 31 30 30 30 31 31 31 30 30 30 30 31 32 33 34 35 34 32 31 31 32 32 33 32 31 30 30 30 29 28 27 28 30 29 28 29 30 31
10 7 5 6 9 11 14 16 16 15 15 16 16 16 16 19 21 23 24 25 25 26 28 29 30 29 29 29 29 31 33 33 33 32 31 31 31 32 33 33 34 34 34 34 34 35 35 36 36 35 35 35 35 34 33 32 32 32 33 34 34 34 35 33 31 31 32 32 32 32 31 29 28 28 27 25 25 24 25 28 29 29 30 31 32
14 13 11 6 6 8 10 13 13 14 15 16 15 14 14 17 20 22 24 25 24 24 26 29 31 31 31 31 30 30 31 32 34 34 35 35 35 35 35 34 34 35 35 35 35 35 36 37 39 39 40 40 39 38 38 37 36 36 37 36 36 37 37 34 31 31 31 31 30 30 30 29 28 27 25 25 24 23 24 27 27 28 31 32 33
16 15 14 10 7 7 8 10 11 12 14 14 14 13 13 15 17 20 23 24 24 23 25 29 31 31 30 29 29 31 32 32 33 34 35 36 38 39 38 38 37 38 38 38 37 36 36 36 38 39 41 42 42 41 40 40 40 40 39 38 38 40 39 36 34 33 32 31 31 30 30 29 29 28 27 26 26 25 25 26 26 27 30 32 33
16 14 14 12 10 8 7 8 8 9 11 12 13 13 13 14 15 17 20 22 23 22 23 26 28 28 28 27 27 29 31 32 33 35 36 37 38 39 40 41 41 41 40 39 38 37 37 36 37 37 38 39 40 40 40 41 42 42 41 39 41 41 39 36 34 33 32 31 31 31 31 30 29 29 28 27 27 27 27 27 27 27 29 30 32
16 14 13 12 11 11 9 8 8 8 8 10 12 13 14 15 16 17 18 19 21 23 23 25 27 27 27 27 27 27 27 29 32 34 35 36 37 38 39 40 41 41 39 38 37 37 36 36 36 36 36 36 36 36 36 37 38 40 41 41 42 41 39 36 34 32 30 28 28 28 28 29 30 30 30 30 29 29 29 29 29 29 30 31 31
18 15 13 12 14 14 12 11 11 11 11 11 10 9 10 13 16 19 20 20 20 21 22 25 27 28 28 28 28 29 29 29 31 33 35 36 37 37 37 38 37 36 36 36 36 36 35 35 35 34 34 34 33 32 32 32 32 34 36 37 37 36 36 36 35 34 33 32 31 30 28 27 26 27 28 29 29 29 30 30 30 30 29 29 28
19 18 15 14 15 17 16 14 13 13 14 14 12 10 11 11 13 16 19 20 19 18 20 23 26 27 28 30 31 31 31 31 32 33 33 33 33 33 33 33 33 33 33 34 33 33 32 31 31 30 30 30 31 31 30 30 30 31 32 32 30 29 29 30 30 32 33 34 34 35 34 32 29 28 26 26 27 27 28 28 29 30 29 28 27
16 17 18 18 19 18 17 17 17 17 17 14 13 14 15 13 12 12 13 14 15 16 18 21 24 26 27 29 31 31 31 31 33 34 33 32 31 29 26 26 27 29 31 32 31 29 27 26 26 26 26 26 27 28 28 28 29 31 31 29 27 26 26 27 27 28 30 31 33 35 36 36 35 35 34 32 30 29 29 28 28 28 29 30 30
12 14 19 23 23 20 19 18 16 14 15 15 12 12 11 11 11 12 12 10 9 10 13 18 22 24 26 27 27 27 27 27 27 27 29 31 31 28 26 26 28 29 31 32 31 29 27 26 26 26 25 26 27 27 28 30 31 32 31 29 28 27 27 28 28 28 29 32 33 35 36 36 36 37 37 36 36 35 34 33 32 31 31 31 32
14 17 21 23 23 22 23 21 16 12 14 16 14 11 9 8 10 12 12 8 7 8 10 13 17 21 23 23 22 21 22 23 22 21 23 25 25 24 23 25 27 30 33 34 33 33 32 31 31 30 29 29 30 31 32 33 33 33 33 33 33 32 32 32 32 32 32 33 34 35 35 35 35 36 36 37 38 39 38 38 37 36 34 33 33
20 20 20 21 22 23 24 24 21 18 15 13 11 11 11 12 13 13 12 8 6 8 10 12 14 15 18 20 20 19 20 20 19 18 20 22 22 22 22 22 21 23 27 31 33 34 35 34 33 33 32 32 32 34 36 37 37 38 38 38 38 38 38 37 36 36 35 35 35 35 35 35 35 36 36 37 39 40 38 37 37 37 37 36 36
21 21 20 20 23 23 22 22 22 18 12 8 8 10 12 13 14 14 14 12 10 9 9 11 12 13 14 16 17 18 17 16 16 17 19 21 21 21 23 23 21 20 21 24 27 31 32 33 33 32 32 33 33 35 37 38 39 41 42 42 42 42 41 40 39 38 38 37 36 36 36 36 36 36 37 38 39 39 37 35 35 36 36 36 37
19 20 20 19 19 18 17 17 15 12 10 10 11 11 12 13 14 16 16 15 16 15 14 15 16 16 17 17 18 18 18 17 18 19 19 19 20 21 22 21 20 19 20 21 23 26 28 29 30 30 31 32 33 34 35 36 38 39 41 42 42 42 42 41 40 40 40 40 39 38 38 37 38 37 37 37 38 37 36 35 35 35 34 35 37
18 17 16 15 15 14 14 13 12 13 15 15 15 16 18 19 20 21 22 21 21 20 20 22 23 24 24 22 20 20 20 21 22 23 22 22 22 21 20 20 20 20 19 20 22 24 26 27 28 28 29 31 33 33 33 33 33 34 35 37 38 39 38 37 35 34 34 34 36 36 36 36 37 37 36 37 38 37 36 36 36 36 35 36 37
20 18 15 14 14 15 16 16 17 18 19 19 19 22 24 24 24 23 23 23 23 22 22 23 23 25 27 25 23 22 21 21 22 23 24 26 27 25 23 22 23 22 21 23 25 27 27 27 28 28 29 31 33 33 32 29 28 29 30 32 32 32 31 30 28 26 25 25 26 27 28 29 29 29 30 33 35 36 37 36 36 36 37 38 39
22 22 20 18 16 16 17 18 19 19 19 18 19 20 22 24 25 24 21 20 22 24 25 24 23 22 23 24 25 25 24 23 22 22 23 24 25 27 27 28 27 27 27 28 31 32 31 31 31 32 32 34 35 35 33 31 30 30 30 31 31 30 30 29 28 26 25 24 22 21 22 22 21 22 24 26 28 31 34 36 36 37 37 38 40
22 23 23 22 20 18 18 18 19 19 18 18 19 19 20 21 24 26 26 26 25 25 24 24 24 23 23 24 24 24 24 24 23 23 22 21 21 23 25 28 29 30 30 32 33 34 34 34 35 37 39 40 40 38 36 35 34 32 32 31 32 32 30 29 28 28 27 24 21 19 21 22 24 27 27 24 24 26 29 32 35 36 38 39 40
23 24 25 23 22 21 20 20 21 22 21 22 21 21 21 21 22 25 28 29 29 27 25 24 25 25 25 25 25 24 24 25 24 23 22 21 20 20 21 23 25 27 29 30 32 33 34 34 35 37 39 40 41 40 38 37 36 36 36 35 34 33 31 30 29 27 25 23 23 25 27 29 31 31 29 26 26 27 29 30 33 35 38 40 42
23 24 23 23 22 21 21 21 22 23 23 24 23 21 20 21 22 22 23 25 27 29 30 28 25 22 22 25 27 27 27 26 26 24 21 18 16 16 18 20 21 23 25 27 29 30 31 31 31 32 34 37 39 40 39 39 37 37 37 36 35 33 29 27 26 24 24 27 31 31 30 31 31 32 31 31 32 33 33 32 32 33 36 39 41
24 24 23 22 21 21 20 20 21 22 23 23 22 20 20 20 20 21 23 25 27 29 29 28 25 23 25 26 27 26 25 24 24 24 22 18 16 14 15 16 18 21 23 26 28 29 29 29 29 29 31 33 34 34 34 34 33 32 32 33 32 28 21 17 17 18 22 28 30 28 27 30 32 34 35 35 35 35 35 35 35 34 35 37 40
24 24 24 23 22 22 21 21 21 22 23 24 24 23 23 23 23 23 25 26 25 25 25 24 25 26 26 23 19 18 20 23 25 24 23 21 19 16 14 14 15 18 21 23 25 27 29 29 29 28 28 29 30 29 28 27 26 27 28 29 29 27 23 21 23 24 24 26 28 28 30 33 34 35 36 36 36 36 36 36 37 37 37 38 40
24 25 25 25 25 25 25 25 25 23 21 22 24 23 22 22 22 22 22 22 21 22 22 22 22 21 20 17 17 19 22 24 24 22 21 21 21 20 19 18 17 18 20 21 21 23 25 26 26 26 26 26 26 26 25 24 23 24 26 26 26 26 25 26 29 30 28 27 29 31 32 34 35 37 37 37 37 38 39 38 39 40 40 40 41
23 24 24 25 26 26 26 26 27 27 25 23 22 20 19 19 20 20 20 21 21 21 21 20 18 17 17 19 22 25 25 24 24 22 21 21 21 21 21 21 20 19 21 22 21 21 21 21 20 21 23 23 23 24 25 26 27 28 29 29 28 29 28 28 29 31 30 29 30 30 30 31 35 37 38 38 39 41 42 42 42 42 42 42 43
20 21 21 22 24 25 25 25 25 27 27 25 23 22 23 24 23 23 24 23 23 21 20 20 19 18 19 22 25 26 26 26 27 26 24 22 22 22 21 21 22 22 22 23 22 22 22 21 21 21 22 24 25 27 28 29 30 31 32 32 31 31 31 31 31 31 30 28 28 28 29 30 33 37 38 40 41 42 42 42 42 43 42 43 43
23 22 22 22 24 25 26 26 25 26 27 26 25 25 25 24 23 23 22 22 21 21 21 21 20 20 20 22 25 26 27 28 27 27 25 23 23 23 22 22 23 25 26 27 27 27 26 25 24 23 23 24 26 27 28 29 30 31 31 32 31 31 30 29 29 29 29 27 27 28 29 29 30 33 36 39 41 41 40 40 41 41 41 41 41
25 24 24 24 24 25 26 27 27 28 28 27 27 26 24 22 21 21 21 22 22 22 22 21 20 19 21 23 25 27 29 30 29 27 27 26 24 24 24 24 24 26 28 29 31 32 31 31 30 30 30 29 29 29 30 30 31 31 32 32 31 32 31 30 28 28 28 28 28 29 30 29 28 29 32 35 37 37 37 37 39 39 39 39 40
24 25 25 24 24 25 26 27 28 28 26 24 24 25 24 22 22 23 24 24 23 21 20 20 20 20 21 23 25 28 30 31 30 27 27 27 27 26 26 26 26 26 27 29 32 33 34 35 35 35 34 34 34 34 34 34 34 35 35 35 34 33 34 34 32 31 31 30 29 30 30 31 31 31 30 30 30 30 31 33 35 35 35 36 37
24 24 25 26 26 26 26 26 27 28 26 23 23 24 24 24 24 24 24 23 21 21 22 22 22 23 24 25 26 27 29 30 29 27 27 28 29 28 27 26 27 27 27 28 30 31 33 34 34 34 33 32 33 34 35 37 38 38 38 39 38 38 37 38 37 36 36 35 33 32 32 32 34 36 35 33 30 29 28 29 31 32 33 34 36
22 22 23 25 26 27 26 26 25 25 23 23 23 23 23 23 22 22 21 21 21 24 26 26 24 25 27 28 27 25 25 27 27 28 28 29 30 30 29 27 27 27 27 27 28 28 29 31 32 31 31 31 30 31 32 34 35 36 37 38 39 39 39 39 39 39 39 39 38 37 36 35 35 38 40 40 38 36 36 36 36 37 38 39 39
21 21 22 23 23 25 26 27 27 25 24 23 22 22 22 22 22 22 22 22 21 22 24 25 24 26 28 29 27 24 24 26 28 29 30 30 31 32 31 29 27 27 26 27 27 27 27 28 29 30 31 30 29 29 30 30 31 33 34 35 37 37 38 38 38 39 40 40 40 40 39 36 36 37 38 40 40 41 41 43 43 43 42 41 39
22 22 22 22 21 22 23 25 27 28 28 27 25 23 22 21 21 22 22 21 21 22 24 26 27 29 30 29 26 23 24 27 29 30 31 31 31 31 31 29 28 28 26 26 26 25 25 26 27 28 28 28 27 27 27 27 27 28 29 30 31 32 33 34 34 35 35 35 35 35 35 34 34 35 36 37 37 37 38 39 40 40 39 39 38
23 23 23 22 22 22 23 24 26 27 27 26 25 23 21 19 19 20 19 18 20 24 27 29 30 31 30 27 25 24 26 29 30 30 30 30 30 31 30 29 28 27 26 25 24 23 22 23 23 24 25 25 25 25 24 23 23 23 23 24 25 26 27 28 28 28 29 29 29 29 28 28 29 29 30 30 30 29 29 31 32 33 35 36 36
21 21 21 21 22 23 23 25 26 26 25 23 23 23 22 21 21 22 22 21 23 25 26 26 27 27 27 27 28 29 30 30 30 29 29 29 30 30 29 27 26 25 25 24 22 21 20 21 22 21 21 21 22 23 22 20 19 19 19 19 20 20 20 20 20 20 22 22 22 22 22 22 23 23 23 24 24 24 24 26 27 29 31 33 35
20 20 20 20 21 21 22 23 25 25 23 22 22 23 25 26 26 25 24 23 22 22 22 23 25 27 29 31 31 31 29 28 28 28 28 29 29 28 26 24 23 23 23 22 20 19 20 21 20 19 18 18 18 19 18 17 16 15 14 14 14 13 13 14 14 15 16 17 17 17 16 16 16 16 16 16 17 18 19 21 22 24 26 27 29
18 18 18 18 19 19 20 21 21 22 23 23 23 24 26 28 28 27 26 25 23 24 25 27 30 32 32 30 29 28 27 27 26 26 26 27 27 25 23 22 22 22 20 19 18 18 18 18 18 16 15 14 14 13 12 11 10 10 9 8 8 8 8 9 9 11 12 12 12 11 10 9 8 8 9 9 10 11 12 14 15 16 18 19 20
Wind_Direction
202 204 208 206 208 214 215 213 214 212 207 207 208 203 202 204 202 201 203 204 205 204 200 202 209 208 201 200 200 201 205 202 202 205 201 200 198 199 207 207 207 209 196 195 202 198 199 202 206 216 219 213 207 213 228 240 253 258 250 241 239 240 240 246 259 258 254 253 255 262 265 261 274 288 295 298 300 298 294 299 305 313 326 324 316
203 204 206 204 207 216 219 216 215 212 209 209 209 207 205 203 202 202 203 204 205 207 207 202 205 210 205 204 203 201 207 209 204 206 207 203 200 203 213 214 207 209 204 200 203 203 205 208 210 216 220 220 217 211 214 236 253 260 270 275 268 260 255 253 262 270 270 266 263 272 280 277 274 283 289 289 291 292 291 296 301 309 320 308 299
209 208 209 205 204 211 218 220 218 214 211 211 211 210 210 207 203 202 202 204 204 206 211 208 204 206 204 207 209 203 208 216 209 206 209 210 207 202 209 223 223 217 212 210 210 208 210 213 214 219 222 227 235 227 214 222 236 240 248 265 270 264 261 258 260 268 274 272 266 268 280 280 275 277 277 275 283 294 299 303 305 307 306 294 292
214 214 216 212 208 210 215 219 220 216 212 213 213 211 212 210 206 204 201 203 206 205 208 211 212 211 204 206 215 208 206 218 217 210 209 214 216 205 200 213 228 229 223 221 220 220 222 222 220 221 220 222 233 236 227 221 227 233 237 247 256 258 255 253 257 266 273 275 271 267 270 271 269 265 267 274 283 288 291 297 303 306 306 305 300
216 215 219 219 218 218 220 221 222 219 214 213 214 213 211 211 210 209 204 203 208 209 206 208 215 222 214 207 215 215 210 216 221 217 212 214 221 217 206 207 214 220 224 224 223 223 227 231 229 224 220 220 226 232 232 226 225 231 237 243 252 264 273 270 265 269 274 278 279 277 275 278 281 280 281 286 289 286 283 287 292 296 299 303 304
221 221 224 225 223 221 223 223 223 222 217 214 215 214 212 212 210 212 209 204 207 211 211 209 211 221 223 216 217 221 219 220 223 223 219 218 225 227 221 217 218 220 223 226 227 225 227 231 232 230 229 227 227 230 233 232 232 235 239 243 244 248 260 268 271 273 275 280 283 285 285 286 289 293 296 298 296 293 290 289 290 291 291 294 295
227 227 228 228 225 222 222 222 222 225 222 217 216 215 213 213 211 212 212 208 207 210 213 214 213 216 223 223 221 224 226 226 227 229 224 218 222 230 230 228 228 231 231 233 235 235 235 238 236 232 234 235 233 230 229 233 239 242 242 244 247 246 246 249 257 267 275 282 286 288 290 292 293 295 298 299 294 290 289 292 297 302 306 302 291
234 234 235 234 231 225 220 220 226 235 231 222 220 218 214 215 214 215 216 212 210 211 212 216 216 216 220 223 222 223 228 230 229 232 231 222 217 224 230 230 230 235 237 237 237 235 237 242 244 240 240 243 242 238 236 237 240 245 248 250 252 255 257 256 255 258 264 272 277 281 284 286 286 285 285 284 282 283 286 290 298 305 306 300 294
232 235 238 238 234 228 221 221 238 255 252 234 224 221 218 217 215 216 219 217 215 214 214 217 219 218 219 223 224 222 225 231 232 233 235 232 224 221 224 227 227 229 234 236 236 234 233 235 238 240 245 253 256 257 256 250 242 240 244 248 250 252 257 260 260 259 260 264 268 273 277 279 282 285 289 292 294 300 300 292 293 299 294 290 295
227 229 234 232 229 230 226 226 242 261 266 257 239 224 220 221 218 217 219 220 219 218 217 217 221 222 222 224 227 226 224 228 235 238 238 238 236 230 227 228 228 228 229 230 231 232 233 234 235 235 239 250 257 261 262 260 255 249 245 246 250 253 256 260 263 265 267 269 271 273 274 277 281 283 287 291 295 301 302 296 297 301 294 288 294
213 225 236 238 234 235 233 231 239 252 260 265 262 245 232 227 222 222 222 221 220 222 222 221 221 223 224 224 226 229 227 226 231 239 241 240 240 238 234 231 231 232 232 229 227 228 230 232 234 234 234 238 245 250 252 255 259 259 256 253 255 258 263 266 269 272 273 272 273 272 271 273 278 279 279 283 286 289 290 289 291 293 286 282 287
200 213 230 239 241 244 243 239 239 245 255 256 252 258 263 245 228 225 225 224 224 223 224 224 222 223 226 226 225 228 230 228 229 235 242 244 243 242 240 236 232 233 235 233 230 230 231 230 231 233 235 237 241 246 248 252 258 263 264 261 259 260 263 267 271 274 275 275 274 273 271 271 272 273 273 274 275 278 277 274 274 275 275 279 285
226 227 233 241 245 246 246 242 239 242 253 250 240 245 252 244 236 233 225 223 226 227 228 229 226 224 224 227 230 232 233 232 229 232 238 244 245 244 242 240 236 233 235 237 236 235 236 236 234 232 233 235 241 249 254 257 261 266 268 266 263 262 262 264 269 272 275 276 275 275 276 276 276 277 279 277 274 274 275 275 276 276 277 279 284
264 252 247 245 247 248 246 244 241 242 247 249 245 245 239 231 231 231 226 222 221 222 225 230 233 232 228 226 229 231 235 237 235 234 237 241 244 244 243 242 239 236 235 237 239 240 241 242 242 241 239 236 236 241 249 256 259 261 263 265 266 266 265 265 268 272 274 275 275 278 280 281 282 284 286 284 281 279 280 280 281 281 281 283 286
297 283 268 250 246 249 251 249 245 245 249 252 249 249 245 234 229 228 230 232 229 224 222 223 229 236 236 234 231 230 232 237 240 242 242 243 244 245 245 244 242 239 236 234 236 239 242 244 246 249 249 247 244 241 241 246 251 255 259 264 268 271 271 271 271 272 274 274 275 277 279 281 282 284 286 285 283 283 284 283 282 282 282 283 284
346 317 293 267 253 251 252 253 251 248 253 258 253 248 244 239 234 232 233 236 237 235 232 227 227 232 236 238 238 237 235 235 237 242 246 247 246 247 247 247 246 245 242 237 235 236 238 241 244 247 250 253 253 252 249 248 249 252 256 261 266 271 274 276 276 276 276 276 277 278 279 280 281 282 284 284 283 284 283 280 279 279 279 280 282
28 16 346 292 272 267 259 254 250 247 251 257 256 250 244 239 235 235 238 240 240 240 241 240 237 236 236 237 240 242 242 240 238 238 241 245 247 248 248 248 248 249 248 245 241 239 238 239 242 245 248 251 254 256 257 256 255 256 258 260 263 266 269 273 275 277 279 280 281 282 282 283 283 284 284 283 282 282 278 275 275 274 272 274 277
27 25 23 358 311 302 283 263 250 243 246 254 257 255 248 241 234 229 233 240 242 241 242 243 243 241 240 241 242 244 245 245 243 241 239 241 243 245 246 247 247 249 250 250 250 248 246 244 244 246 248 251 253 255 256 258 258 260 262 262 262 263 265 267 268 271 276 278 279 280 280 280 281 282 281 280 280 278 272 274 278 275 270 270 272
16 18 23 19 354 333 309 285 265 248 246 249 253 255 251 247 243 236 232 235 239 240 240 239 241 243 245 246 247 247 246 246 245 245 242 240 241 243 245 246 247 248 250 252 254 255 254 252 250 249 251 253 255 255 255 256 258 260 262 262 262 264 266 266 265 267 269 271 273 274 275 276 278 279 279 278 278 275 271 274 277 274 271 272 273
4 5 11 14 4 350 330 305 283 264 258 255 252 255 257 253 250 247 242 239 237 238 239 239 241 244 248 249 250 250 248 245 245 247 246 243 242 242 243 244 246 248 250 252 254 257 258 258 256 254 255 256 257 258 258 258 259 260 261 260 261 265 268 267 266 267 268 270 271 272 272 273 273 275 276 276 275 273 272 272 274 273 274 276 276
355 353 355 357 353 349 341 319 294 277 273 266 256 255 259 260 258 256 254 252 247 243 242 242 243 244 244 246 248 249 249 246 245 246 247 246 246 244 244 244 246 249 251 252 253 254 256 259 261 261 261 261 261 261 262 262 262 262 261 261 264 267 268 266 264 265 266 268 269 270 271 273 273 272 272 273 273 274 275 274 274 274 275 277 278
345 345 347 350 348 345 341 328 305 286 280 272 261 260 264 263 263 261 258 259 260 258 254 251 250 247 243 241 242 244 245 247 250 250 247 247 248 247 247 247 248 250 251 251 252 253 255 258 261 263 266 268 269 269 269 269 268 266 266 266 268 269 268 266 265 264 263 263 263 263 264 266 269 272 273 274 275 275 276 276 277 277 278 278 279
339 336 338 344 345 342 340 340 332 317 303 283 268 283 298 280 263 261 260 259 260 264 264 261 259 256 249 242 241 241 243 248 254 255 252 250 250 248 247 250 253 253 253 252 252 254 257 260 263 265 266 268 271 273 274 273 271 271 271 272 272 271 269 268 267 266 265 264 263 262 260 258 257 259 263 268 273 275 277 278 280 283 284 283 281
337 329 325 327 335 341 341 342 343 342 335 312 282 288 305 295 268 256 259 259 258 263 268 266 264 264 262 256 251 249 249 253 259 265 268 268 265 257 250 248 251 253 254 254 254 255 257 260 263 264 264 265 267 269 270 270 270 271 273 273 272 271 268 267 266 265 265 264 263 263 263 262 261 261 261 261 262 265 269 272 275 279 281 281 281
323 312 312 318 326 331 331 336 342 340 337 330 309 295 303 308 290 267 258 260 267 275 278 272 267 266 268 269 266 263 262 262 265 276 287 288 280 271 260 250 246 247 248 250 250 250 252 252 253 253 254 256 258 261 263 265 267 268 269 269 269 268 266 266 266 265 264 264 264 265 267 268 268 269 270 267 262 259 259 261 262 265 268 270 273
297 300 308 314 318 318 319 326 331 323 316 321 322 311 299 309 309 289 273 273 292 307 303 288 278 272 270 272 278 283 284 279 276 286 298 294 282 272 262 251 244 243 245 247 249 250 252 253 253 253 253 252 252 254 256 259 261 263 264 264 264 264 264 265 266 267 267 268 268 269 271 273 273 273 273 271 269 266 264 262 260 260 260 261 263
300 304 308 309 308 311 315 317 319 321 320 319 319 312 299 295 295 291 288 292 312 322 314 302 296 290 281 278 283 290 293 288 280 279 283 279 273 270 264 255 248 246 246 246 249 252 255 257 258 258 258 257 255 255 255 255 257 258 260 261 261 263 265 267 269 270 272 273 272 272 273 274 274 274 273 272 272 272 271 268 264 261 260 259 259
304 305 307 307 307 311 314 316 320 325 324 309 300 299 297 294 288 285 286 286 286 290 292 290 294 297 291 287 286 287 290 290 281 274 273 272 272 271 266 259 255 253 250 247 247 250 253 256 257 259 260 261 262 261 260 259 259 260 261 262 263 264 265 267 268 270 271 272 271 272 273 274 274 275 274 272 272 271 271 269 267 265 263 260 258
307 307 308 308 310 312 312 314 317 312 295 293 298 295 287 281 278 277 278 276 273 272 270 270 275 279 279 275 274 275 277 277 274 271 272 271 269 268 266 262 258 255 252 248 247 249 252 255 257 259 261 263 265 265 265 265 265 264 265 265 265 265 264 262 263 266 270 270 270 271 272 274 275 275 274 272 272 271 268 266 265 265 264 260 258
308 309 309 306 304 304 302 299 291 284 284 289 290 286 281 281 282 284 285 282 280 278 272 268 270 274 274 270 268 269 270 270 270 268 266 266 267 268 267 265 262 260 257 256 257 257 258 259 261 263 265 267 268 268 269 271 271 270 269 269 269 268 266 265 266 269 270 269 269 270 271 271 272 271 270 270 271 270 266 263 262 261 260 258 258
299 300 301 300 296 295 295 293 287 284 286 288 288 288 289 290 292 294 293 291 290 287 282 277 275 275 274 272 270 270 270 270 270 269 266 264 266 266 264 262 262 263 264 266 268 267 266 267 267 268 269 270 269 268 268 268 267 266 267 268 269 269 269 270 272 274 274 273 274 275 274 273 273 272 269 268 268 265 262 260 258 256 256 255 256
300 296 292 289 288 287 288 291 293 293 291 289 288 290 293 294 295 295 294 291 291 290 289 289 288 285 282 279 276 275 273 271 270 271 270 268 266 264 262 261 263 265 266 268 271 272 274 275 275 275 275 274 272 270 268 265 261 261 264 265 264 264 265 266 269 271 271 271 271 271 270 271 274 275 272 267 264 260 258 256 254 252 252 253 254
303 299 295 289 285 282 279 278 281 285 287 287 287 288 291 294 295 294 292 290 290 291 291 293 295 295 294 290 286 283 281 279 277 276 274 270 268 264 261 260 262 263 264 267 270 273 274 276 277 277 276 275 275 275 274 271 268 265 266 266 262 259 260 262 266 267 259 251 251 261 268 270 272 272 268 262 259 258 257 255 252 250 250 251 253
298 298 298 293 286 282 280 276 275 275 278 282 286 288 288 287 288 292 294 294 293 291 291 294 298 300 299 295 293 292 291 289 288 285 277 269 268 268 266 264 263 264 265 266 268 271 272 273 274 276 275 274 274 274 274 274 273 270 269 268 264 262 262 262 262 260 252 248 255 265 269 269 271 271 268 263 263 263 261 256 253 250 249 250 252
296 295 297 296 291 287 284 281 278 277 279 282 284 286 285 284 285 287 288 290 291 291 293 298 301 300 296 295 296 297 296 293 293 292 284 273 269 270 270 270 269 268 269 271 271 271 272 274 277 279 279 278 276 275 276 277 276 274 273 271 267 266 267 265 261 259 259 262 265 267 266 266 269 271 268 265 264 264 263 260 257 254 252 252 253
297 295 295 294 293 289 286 282 279 276 277 279 282 283 282 282 284 285 282 283 288 292 295 297 298 296 296 299 302 302 298 293 293 294 293 291 287 282 278 278 277 274 274 275 275 274 274 275 278 282 284 284 283 283 285 285 282 278 275 272 267 268 275 287 289 280 269 264 265 269 270 268 267 268 267 265 263 262 261 261 260 257 256 255 255
294 294 294 293 291 286 280 277 275 274 274 274 274 276 276 277 281 286 287 288 291 293 293 295 297 298 301 304 303 297 291 289 292 295 298 301 300 295 290 291 290 283 277 276 277 279 280 281 282 284 287 289 288 290 295 298 294 288 282 277 274 274 280 289 290 284 272 262 260 262 264 263 263 264 263 262 261 261 260 260 260 259 258 257 256
288 287 286 287 289 286 279 272 267 265 269 272 271 271 274 276 279 283 287 290 291 291 291 295 298 299 299 295 286 281 283 288 291 293 296 300 301 299 297 297 297 293 286 282 282 283 284 286 287 289 290 291 291 293 297 298 293 286 282 280 280 280 278 278 278 279 278 272 266 263 262 263 265 265 263 261 262 263 262 262 261 261 261 260 259
289 289 286 285 288 289 286 279 269 263 264 269 268 266 269 274 277 278 281 284 287 288 289 290 292 292 290 287 283 283 285 287 288 288 291 295 298 298 296 291 288 289 290 289 287 283 279 276 277 277 277 277 277 279 281 281 280 279 279 280 280 280 279 278 278 278 279 277 275 273 272 272 273 273 271 269 267 264 264 264 263 263 263 264 264
286 287 287 289 289 288 287 284 277 269 266 267 267 268 270 273 274 275 277 278 280 281 282 284 287 289 288 285 286 288 288 287 286 289 292 294 294 295 295 287 278 276 277 276 274 272 270 268 267 266 267 268 269 270 272 275 279 282 284 285 286 285 282 280 279 280 280 278 275 273 272 272 274 275 274 271 269 266 265 266 266 265 264 264 266
286 287 288 288 287 284 281 277 274 271 267 263 263 265 267 268 269 271 273 273 273 274 277 281 284 286 286 287 289 290 289 287 286 290 293 293 293 295 297 292 284 280 275 269 265 264 265 266 267 267 267 268 270 270 271 274 277 279 282 284 287 288 287 284 280 279 279 277 273 272 272 274 275 275 274 273 272 272 271 270 270 269 267 266 267
287 290 292 291 289 287 282 276 273 272 268 261 258 258 261 265 268 269 269 270 270 272 275 279 281 284 287 289 289 288 286 285 286 288 289 290 291 295 296 294 290 285 280 274 269 266 265 265 266 268 268 268 267 267 268 270 272 274 276 277 278 280 281 280 277 274 274 273 272 272 274 275 275 275 275 274 273 273 275 274 272 271 272 272 271
288 287 289 291 291 290 286 280 275 272 267 261 258 258 259 263 265 266 266 267 267 268 272 277 281 283 283 283 282 281 281 284 286 288 288 288 291 293 294 293 291 288 283 278 274 271 269 268 268 270 271 270 269 267 267 267 268 269 270 271 272 272 274 275 274 274 274 273 272 270 270 270 268 268 269 269 269 272 278 278 275 273 274 275 275
298 293 292 291 289 288 287 285 279 273 267 261 259 261 265 267 268 269 269 269 269 270 274 277 280 279 276 273 272 275 280 285 289 291 291 291 292 293 292 292 292 291 288 283 278 274 272 271 271 271 273 273 272 271 269 269 269 270 270 270 270 269 270 271 272 273 274 274 273 272 270 268 266 264 264 265 266 267 271 272 272 272 275 276 277
302 299 297 294 291 287 285 284 282 278 274 270 265 264 267 270 271 270 271 271 271 273 273 272 271 272 271 271 272 277 283 288 291 294 295 295 295 294 292 292 291 290 289 287 282 278 276 275 274 274 276 277 277 275 273 271 271 272 273 274 274 273 272 271 271 272 273 274 275 276 274 272 269 266 266 267 269 269 269 270 271 273 276 277 277
303 300 297 296 294 289 283 280 279 278 281 282 278 269 265 267 269 270 271 271 271 271 270 267 266 268 271 274 277 281 284 286 290 294 297 298 297 295 293 293 292 290 289 288 287 283 279 275 274 275 276 278 280 280 278 276 275 275 276 277 278 278 278 277 276 276 276 277 277 278 278 277 276 273 273 273 275 276 278 278 279 279 278 277 275
304 300 297 295 294 290 286 281 276 274 276 282 284 280 273 271 272 274 273 271 269 269 269 269 270 272 275 275 275 275 279 285 290 295 298 299 298 296 294 294 293 292 291 291 290 288 283 278 275 274 276 278 281 282 282 281 281 280 280 279 279 280 281 281 282 281 282 282 282 281 281 281 280 280 280 280 279 280 280 280 279 277 276 274 273
304 300 297 295 292 290 287 281 275 274 275 278 281 283 281 278 275 273 270 268 269 270 271 271 271 272 272 273 274 277 283 289 293 296 299 300 298 297 296 295 295 294 294 294 293 291 289 285 280 278 278 280 283 285 286 286 286 286 286 284 284 283 282 282 283 283 283 282 282 281 281 281 280 278 277 277 276 276 276 276 276 275 275 275 274
303 299 297 295 292 292 289 283 278 277 279 279 278 278 278 277 275 271 268 268 269 269 267 266 267 268 270 276 282 286 289 291 293 297 300 300 297 296 296 296 294 293 293 295 295 294 292 289 287 285 282 282 283 285 288 289 291 291 291 289 288 287 286 286 285 283 281 280 279 277 275 273 272 271 270 271 273 275 276 277 278 279 278 277 275
302 299 298 296 293 292 290 286 280 276 275 276 276 276 275 276 277 275 272 270 268 264 261 263 268 273 277 283 286 287 286 288 292 296 298 297 295 295 296 294 292 290 290 291 291 290 287 288 289 289 286 283 281 283 286 289 292 293 293 292 290 287 286 284 282 280 278 276 274 272 270 270 270 272 275 279 283 286 288 288 287 286 284 283 281
307 304 302 301 300 296 292 288 283 277 273 272 272 272 272 272 272 270 268 268 268 266 267 271 275 278 280 282 282 282 283 286 290 292 293 292 292 293 293 290 287 287 286 284 282 280 280 282 284 284 283 283 283 282 283 286 289 289 289 291 292 289 285 281 276 272 272 271 269 268 270 275 280 287 294 300 304 306 306 304 302 299 295 292 289